KS5S Weather Reports


Display with metric or nautical units.
time (UTC)temp
F
wind
direction
speed
MPH
gust
MPH
rain 1hr
in
rain 24hr
in
rain mn
in
humidity
%
barometer
mb
20260902125312 80 119 1.0 4.0 0.00 0.00 0.00 78 1013.5
20260902124808 80 131 0.0 3.0 0.00 0.00 0.00 79 1013.4
20260902124303 79 68 2.0 4.0 0.00 0.00 0.00 81 1013.4
20260902123758 78 64 2.0 3.0 0.00 0.00 0.00 81 1013.3
20260902123254 78 87 3.0 3.0 0.00 0.00 0.00 82 1013.2
20260902122752 78 79 1.0 3.0 0.00 0.00 0.00 82 1013.4
20260902122249 78 92 2.0 3.0 0.00 0.00 0.00 83 1013.4
20260902121743 77 70 3.0 3.0 0.00 0.00 0.00 84 1013.3
20260902121238 77 108 0.0 3.0 0.00 0.00 0.00 85 1013.2
20260902120733 76 80 3.0 3.0 0.00 0.00 0.00 86 1013.4
20260902120229 77 63 1.0 3.0 0.00 0.00 0.00 85 1013.3
20260902115724 77 87 1.0 3.0 0.00 0.00 0.00 85 1013.3
20260902115220 77 84 2.0 3.0 0.00 0.00 0.00 85 1013.4
20260902114716 77 77 2.0 2.0 0.00 0.00 0.00 84 1013.2
20260902114211 78 73 2.0 3.0 0.00 0.00 0.00 83 1013.3
20260902113706 77 25 0.0 2.0 0.00 0.00 0.00 83 1013.1
20260902113201 77 75 0.0 1.0 0.00 0.00 0.00 84 1013.2
20260902112701 77 343 0.0 1.0 0.00 0.00 0.00 83 1013.3
20260902112159 77 322 0.0 2.0 0.00 0.00 0.00 82 1013.1
20260902111654 78 296 1.0 2.0 0.00 0.00 0.00 82 1013.1
20260902111149 78 246 0.0 2.0 0.00 0.00 0.00 81 1013.1
20260902110645 78 89 0.0 3.0 0.00 0.00 0.00 81 1013.1
20260902110141 78 54 0.0 2.0 0.00 0.00 0.00 81 1013.0
20260902105640 78 47 0.0 3.0 0.00 0.00 0.00 80 1013.2
20260902105136 78 130 0.0 3.0 0.00 0.00 0.00 81 1013.3
20260902104631 78 106 1.0 3.0 0.00 0.00 0.00 81 1013.4
20260902104126 78 77 2.0 2.0 0.00 0.00 0.00 80 1013.3
20260902103625 78 309 0.0 1.0 0.00 0.00 0.00 80 1013.3
20260902103121 79 76 0.0 1.0 0.00 0.00 0.00 80 1013.1
20260902102617 78 229 0.0 2.0 0.00 0.00 0.00 80 1013.0
20260902102114 78 254 0.0 1.0 0.00 0.00 0.00 80 1013.2
20260902101609 78 160 0.0 2.0 0.00 0.00 0.00 80 1013.1
20260902101109 78 113 0.0 1.0 0.00 0.00 0.00 81 1012.9
20260902100603 78 309 0.0 1.0 0.00 0.00 0.00 80 1013.2
20260902100058 79 322 0.0 1.0 0.00 0.00 0.00 80 1013.1
20260902095551 79 104 0.0 0.0 0.00 0.00 0.00 79 1013.3
20260902095051 79 104 0.0 0.0 0.00 0.00 0.00 79 1012.9
20260902094546 79 50 0.0 0.0 0.00 0.00 0.00 79 1012.9
20260902094042 79 50 0.0 1.0 0.00 0.00 0.00 79 1013.0
20260902093537 79 57 0.0 1.0 0.00 0.00 0.00 79 1013.1
20260902093037 79 333 0.0 0.0 0.00 0.00 0.00 79 1013.0
20260902092532 79 25 0.0 0.0 0.00 0.00 0.00 78 1013.0
20260902092027 79 37 0.0 0.0 0.00 0.00 0.00 78 1013.1
20260902091522 79 352 0.0 0.0 0.00 0.00 0.00 78 1013.1
20260902091018 79 352 0.0 1.0 0.00 0.00 0.00 79 1013.0
20260902090514 79 333 0.0 1.0 0.00 0.00 0.00 78 1013.0
20260902090013 80 333 0.0 1.0 0.00 0.00 0.00 77 1013.0
20260902085513 80 25 0.0 0.0 0.00 0.00 0.00 77 1013.1
20260902085008 80 205 0.0 0.0 0.00 0.00 0.00 77 1013.1
20260902084504 80 205 0.0 0.0 0.00 0.00 0.00 77 1013.2
20260902084000 80 217 1.0 2.0 0.00 0.00 0.00 77 1013.1
20260902083455 80 309 0.0 1.0 0.00 0.00 0.00 77 1013.2
20260902082949 80 322 0.0 1.0 0.00 0.00 0.00 77 1013.4
20260902082445 80 315 0.0 1.0 0.00 0.00 0.00 76 1013.2
20260902081941 81 230 0.0 1.0 0.00 0.00 0.00 76 1013.2
20260902081437 81 199 0.0 2.0 0.00 0.00 0.00 75 1013.2
20260902080932 81 128 0.0 2.0 0.00 0.00 0.00 74 1013.5
20260902080428 81 235 0.0 2.0 0.00 0.00 0.00 74 1013.3
20260902075928 82 242 0.0 1.0 0.00 0.00 0.00 73 1013.3
20260902075424 82 217 1.0 3.0 0.00 0.00 0.00 73 1013.3
20260902074919 82 213 0.0 2.0 0.00 0.00 0.00 73 1013.4
20260902074414 82 283 0.0 2.0 0.00 0.00 0.00 72 1013.4
20260902073909 82 237 1.0 2.0 0.00 0.00 0.00 72 1013.4
20260902073405 82 232 0.0 2.0 0.00 0.00 0.00 72 1013.4
20260902072901 82 269 0.0 3.0 0.00 0.00 0.00 72 1013.4
20260902072357 83 224 0.0 2.0 0.00 0.00 0.00 71 1013.1
20260902071853 83 220 0.0 3.0 0.00 0.00 0.00 71 1013.4
20260902071352 83 197 1.0 3.0 0.00 0.00 0.00 70 1013.4
20260902070849 84 233 0.0 2.0 0.00 0.00 0.00 69 1013.2
20260902070344 84 199 1.0 5.0 0.00 0.00 0.00 69 1013.1
20260902065842 84 160 1.0 4.0 0.00 0.00 0.00 69 1013.5
20260902065338 84 180 0.0 6.0 0.00 0.00 0.00 69 1013.2
20260902064833 84 184 2.0 5.0 0.00 0.00 0.00 69 1013.4
20260902064330 84 183 3.0 4.0 0.00 0.00 0.00 69 1013.4
20260902063824 84 161 2.0 5.0 0.00 0.00 0.00 69 1013.5
20260902063319 84 170 3.0 6.0 0.00 0.00 0.00 68 1013.5
20260902062813 84 182 3.0 4.0 0.00 0.00 0.00 68 1013.6
20260902062308 84 186 2.0 5.0 0.00 0.00 0.00 68 1013.6
20260902061808 84 207 2.0 7.0 0.00 0.00 0.00 67 1013.6
20260902061303 85 162 3.0 6.0 0.00 0.00 0.00 66 1013.4
20260902060800 85 166 5.0 7.0 0.00 0.00 0.00 66 1013.2
20260902060255 85 189 3.0 6.0 0.00 0.00 0.00 66 1013.4
20260902055750 85 180 5.0 12.0 0.00 0.00 0.00 66 1013.4
20260902055246 85 180 5.0 10.0 0.00 0.00 0.00 65 1013.4
20260902054741 86 145 5.0 12.0 0.00 0.00 0.00 65 1013.2
20260902054236 86 198 1.0 7.0 0.00 0.00 0.00 65 1013.2
20260902053731 86 146 1.0 11.0 0.00 0.00 0.00 65 1013.0
20260902053226 86 161 2.0 9.0 0.00 0.00 0.00 65 1013.0
20260902052725 86 153 12.0 14.0 0.00 0.00 0.00 65 1012.8
20260902052221 86 154 3.0 8.0 0.00 0.00 0.00 64 1012.8
20260902051720 86 180 2.0 8.0 0.00 0.00 0.00 64 1012.8
20260902051214 86 133 5.0 9.0 0.00 0.00 0.00 64 1013.1
20260902050709 86 167 3.0 8.0 0.00 0.00 0.00 64 1013.1
20260902050204 86 229 0.0 10.0 0.00 0.00 0.00 63 1012.8
20260902045659 87 147 5.0 11.0 0.00 0.00 0.00 63 1012.9
20260902045155 86 153 7.0 9.0 0.00 0.00 0.00 63 1012.9
20260902044650 87 114 3.0 10.0 0.00 0.00 0.00 62 1012.9
20260902044146 87 145 4.0 10.0 0.00 0.00 0.00 62 1012.9
20260902043641 87 147 8.0 11.0 0.00 0.00 0.00 61 1013.0
20260902043136 87 132 4.0 10.0 0.00 0.00 0.00 61 1012.9
20260902042635 87 133 3.0 9.0 0.00 0.00 0.00 61 1012.9
20260902042131 87 140 4.0 12.0 0.00 0.00 0.00 60 1012.8
20260902041631 87 147 3.0 8.0 0.00 0.00 0.00 60 1012.9
20260902041125 87 102 3.0 8.0 0.00 0.00 0.00 60 1012.9
20260902040625 87 189 0.0 6.0 0.00 0.00 0.00 59 1013.0
20260902040120 86 130 2.0 3.0 0.00 0.00 0.00 62 1012.8
20260902035618 86 143 0.0 2.0 0.00 0.00 0.00 61 1012.5
20260902035114 86 103 1.0 3.0 0.00 0.00 0.00 61 1012.4
20260902034612 86 103 0.0 1.0 0.00 0.00 0.00 60 1012.6
20260902034107 87 343 0.0 1.0 0.00 0.00 0.00 60 1012.5
20260902033606 86 81 0.0 2.0 0.00 0.00 0.00 60 1012.4
20260902033101 87 326 0.0 1.0 0.00 0.00 0.00 60 1012.5
20260902032600 87 322 0.0 1.0 0.00 0.00 0.00 59 1012.6
20260902032055 87 322 0.0 2.0 0.00 0.00 0.00 59 1012.5
20260902031549 87 89 0.0 1.0 0.00 0.00 0.00 58 1012.5
20260902031045 87 77 0.0 1.0 0.00 0.00 0.00 58 1012.4
20260902030540 87 71 0.0 2.0 0.00 0.00 0.00 58 1012.3
20260902030040 88 86 0.0 4.0 0.00 0.00 0.00 57 1012.1
20260902025534 88 87 0.0 4.0 0.00 0.00 0.00 57 1012.3
20260902025029 88 235 0.0 4.0 0.00 0.00 0.00 58 1012.1
20260902024520 88 202 0.0 2.0 0.00 0.00 0.00 58 1012.0
20260902024020 88 104 0.0 1.0 0.00 0.00 0.00 57 1012.2
20260902023516 88 100 1.0 3.0 0.00 0.00 0.00 56 1011.9
20260902023015 89 62 0.0 3.0 0.00 0.00 0.00 55 1012.0
20260902022510 89 44 0.0 1.0 0.00 0.00 0.00 55 1011.7
20260902022006 89 352 0.0 1.0 0.00 0.00 0.00 55 1011.8
20260902021501 89 350 0.0 2.0 0.00 0.00 0.00 55 1011.4
20260902020956 89 317 0.0 2.0 0.00 0.00 0.00 54 1011.4
20260902020452 89 44 0.0 1.0 0.00 0.00 0.00 53 1011.5
20260902015948 90 59 0.0 2.0 0.00 0.00 0.00 53 1011.3
20260902015443 90 97 0.0 2.0 0.00 0.00 0.00 52 1011.3
20260902014939 91 127 0.0 2.0 0.00 0.00 0.00 52 1011.3
20260902014435 91 89 0.0 2.0 0.00 0.00 0.00 51 1011.1
20260902013934 91 303 1.0 2.0 0.00 0.00 0.00 50 1011.1
20260902013430 92 95 2.0 2.0 0.00 0.00 0.00 50 1011.3
20260902012925 92 126 0.0 4.0 0.00 0.00 0.00 48 1011.2
20260902012420 92 144 2.0 3.0 0.00 0.00 0.00 48 1011.1
20260902011916 93 198 2.0 3.0 0.00 0.00 0.00 48 1010.9
20260902011410 93 180 2.0 3.0 0.00 0.00 0.00 47 1011.0
20260902010910 93 186 0.0 4.0 0.00 0.00 0.00 47 1011.0
20260902010405 93 127 2.0 4.0 0.00 0.00 0.00 47 1011.0
20260902005904 93 69 0.0 2.0 0.00 0.00 0.00 47 1011.1
20260902005358 94 179 0.0 2.0 0.00 0.00 0.00 46 1010.8
20260902004855 95 184 0.0 2.0 0.00 0.00 0.00 45 1010.7
20260902004354 95 168 0.0 3.0 0.00 0.00 0.00 45 1010.7
20260902003850 96 143 0.0 5.0 0.00 0.00 0.00 44 1010.6
20260902003349 96 85 0.0 5.0 0.00 0.00 0.00 43 1010.8
20260902002845 96 122 2.0 6.0 0.00 0.00 0.00 42 1010.7
20260902002344 96 121 4.0 6.0 0.00 0.00 0.00 42 1010.6
20260902001840 97 127 2.0 5.0 0.00 0.00 0.00 42 1010.9
20260902001335 97 107 1.0 8.0 0.00 0.00 0.00 42 1010.8
20260902000830 98 116 3.0 7.0 0.00 0.00 0.00 42 1010.9
20260902000330 98 87 3.0 5.0 0.00 0.00 0.00 42 1010.8
20260901235825 98 48 3.0 7.0 0.00 0.00 0.00 41 1011.0
20260901235325 98 120 5.0 9.0 0.00 0.00 0.00 40 1010.9
20260901234820 98 175 1.0 6.0 0.00 0.00 0.00 41 1010.9
20260901234314 98 102 0.0 3.0 0.00 0.00 0.00 41 1011.0
20260901233809 97 210 1.0 3.0 0.00 0.00 0.00 42 1011.2
20260901233305 97 159 3.0 3.0 0.00 0.00 0.00 42 1010.9
20260901232800 98 214 0.0 2.0 0.00 0.00 0.00 42 1011.1
20260901232249 98 107 2.0 5.0 0.00 0.00 0.00 42 1011.2
20260901231745 98 203 1.0 3.0 0.00 0.00 0.00 41 1011.2
20260901231236 97 145 0.0 2.0 0.00 0.00 0.00 42 1011.1
20260901230732 97 162 0.0 6.0 0.00 0.00 0.00 42 1011.2
20260901230231 98 143 2.0 3.0 0.00 0.00 0.00 42 1011.3
20260901225727 97 55 0.0 4.0 0.00 0.00 0.00 43 1011.2
20260901225221 97 61 3.0 6.0 0.00 0.00 0.00 43 1011.3
20260901224717 97 119 3.0 10.0 0.00 0.00 0.00 43 1011.3
20260901224213 97 22 0.0 6.0 0.00 0.00 0.00 43 1011.4
20260901223709 97 103 4.0 8.0 0.00 0.00 0.00 42 1011.3
20260901223203 97 132 2.0 6.0 0.00 0.00 0.00 42 1011.4
20260901222700 97 97 7.0 7.0 0.00 0.00 0.00 42 1011.5
20260901222155 97 83 4.0 7.0 0.00 0.00 0.00 42 1011.5
20260901221651 97 101 2.0 7.0 0.00 0.00 0.00 42 1011.4
20260901221147 97 98 6.0 9.0 0.00 0.00 0.00 42 1011.1
20260901220646 97 111 2.0 11.0 0.00 0.00 0.00 43 1011.3
20260901220145 97 63 1.0 10.0 0.00 0.00 0.00 42 1011.4
20260901215644 98 143 3.0 7.0 0.00 0.00 0.00 40 1011.2
20260901215139 98 78 3.0 6.0 0.00 0.00 0.00 40 1011.3
20260901214637 98 103 0.0 5.0 0.00 0.00 0.00 41 1011.4
20260901214136 98 49 1.0 5.0 0.00 0.00 0.00 41 1011.5
20260901213631 98 93 4.0 9.0 0.00 0.00 0.00 41 1011.5
20260901213125 98 79 1.0 5.0 0.00 0.00 0.00 41 1011.7
20260901212619 98 151 3.0 6.0 0.00 0.00 0.00 41 1011.7
20260901212116 98 146 2.0 9.0 0.00 0.00 0.00 41 1011.4
20260901211611 98 104 7.0 12.0 0.00 0.00 0.00 40 1011.8
20260901211107 100 120 9.0 12.0 0.00 0.00 0.00 39 1011.9
20260901210603 100 191 2.0 8.0 0.00 0.00 0.00 40 1011.9
20260901210058 100 173 7.0 9.0 0.00 0.00 0.00 39 1011.9
20260901205553 99 183 5.0 9.0 0.00 0.00 0.00 41 1012.1
20260901205048 98 161 6.0 8.0 0.00 0.00 0.00 41 1011.9
20260901204544 98 142 4.0 8.0 0.00 0.00 0.00 41 1012.2
20260901204038 99 101 5.0 6.0 0.00 0.00 0.00 39 1012.0
20260901203533 100 36 3.0 15.0 0.00 0.00 0.00 40 1012.1
20260901203028 100 132 1.0 7.0 0.00 0.00 0.00 40 1012.2
20260901202523 99 117 6.0 10.0 0.00 0.00 0.00 40 1012.1
20260901202019 99 85 3.0 12.0 0.00 0.00 0.00 41 1012.4
20260901201514 100 122 7.0 17.0 0.00 0.00 0.00 40 1012.3
20260901201008 99 129 4.0 10.0 0.00 0.00 0.00 41 1012.2
20260901200503 99 43 2.0 11.0 0.00 0.00 0.00 41 1012.4
20260901200002 101 68 5.0 9.0 0.00 0.00 0.00 40 1012.4
20260901195500 100 284 2.0 6.0 0.00 0.00 0.00 39 1012.4
20260901194954 99 121 4.0 15.0 0.00 0.00 0.00 40 1012.4
20260901194450 99 60 4.0 7.0 0.00 0.00 0.00 40 1012.5
20260901193946 100 46 7.0 11.0 0.00 0.00 0.00 39 1012.6
20260901193445 100 95 3.0 8.0 0.00 0.00 0.00 40 1012.6
20260901192944 98 240 0.0 3.0 0.00 0.00 0.00 41 1012.6
20260901192440 96 179 1.0 4.0 0.00 0.00 0.00 44 1013.1
20260901191936 96 120 3.0 9.0 0.00 0.00 0.00 44 1012.9
20260901191432 98 139 3.0 9.0 0.00 0.00 0.00 41 1012.8
20260901190928 100 161 2.0 7.0 0.00 0.00 0.00 40 1013.1
20260901190427 98 112 4.0 11.0 0.00 0.00 0.00 42 1013.1
20260901185925 98 171 2.0 7.0 0.00 0.00 0.00 42 1013.0
20260901185426 97 117 4.0 12.0 0.00 0.00 0.00 43 1013.1
20260901184926 97 165 3.0 8.0 0.00 0.00 0.00 43 1013.3
20260901184421 97 328 0.0 9.0 0.00 0.00 0.00 42 1013.3
20260901183916 98 165 4.0 15.0 0.00 0.00 0.00 42 1013.3
20260901183416 98 113 3.0 11.0 0.00 0.00 0.00 42 1013.5
20260901182912 97 325 1.0 8.0 0.00 0.00 0.00 44 1013.7
20260901182407 97 138 7.0 10.0 0.00 0.00 0.00 44 1013.7
20260901181902 97 122 3.0 11.0 0.00 0.00 0.00 43 1014.2
20260901181356 96 33 3.0 7.0 0.00 0.00 0.00 45 1014.2
20260901180855 96 102 6.0 11.0 0.00 0.00 0.00 45 1014.2
20260901180354 96 29 3.0 9.0 0.00 0.00 0.00 46 1014.4
20260901175853 96 42 7.0 10.0 0.00 0.00 0.00 45 1014.2
20260901175348 95 188 3.0 8.0 0.00 0.00 0.00 45 1014.2
20260901174843 98 98 4.0 12.0 0.00 0.00 0.00 43 1014.4
20260901174339 97 148 5.0 12.0 0.00 0.00 0.00 43 1014.4
20260901173834 96 87 4.0 5.0 0.00 0.00 0.00 46 1014.3
20260901173329 95 180 6.0 12.0 0.00 0.00 0.00 46 1014.3
20260901172826 98 178 6.0 7.0 0.00 0.00 0.00 44 1014.5
20260901172325 98 342 7.0 7.0 0.00 0.00 0.00 44 1014.7
20260901171823 97 87 1.0 5.0 0.00 0.00 0.00 45 1014.5
20260901171322 97 164 5.0 8.0 0.00 0.00 0.00 46 1014.8
20260901170817 96 244 4.0 11.0 0.00 0.00 0.00 46 1014.9
20260901170316 96 184 3.0 6.0 0.00 0.00 0.00 46 1014.9
20260901165815 96 207 4.0 5.0 0.00 0.00 0.00 46 1014.7
20260901165310 96 214 3.0 7.0 0.00 0.00 0.00 47 1014.9
20260901164807 95 244 2.0 10.0 0.00 0.00 0.00 48 1015.0
20260901164302 95 246 5.0 12.0 0.00 0.00 0.00 48 1015.1
20260901163757 95 133 3.0 8.0 0.00 0.00 0.00 48 1015.0
20260901163256 95 260 2.0 9.0 0.00 0.00 0.00 49 1015.4
20260901162751 94 230 4.0 8.0 0.00 0.00 0.00 49 1015.1
20260901162251 95 120 3.0 6.0 0.00 0.00 0.00 48 1015.2
20260901161749 95 187 2.0 9.0 0.00 0.00 0.00 48 1015.2
20260901161244 94 182 6.0 9.0 0.00 0.00 0.00 49 1015.3
20260901160740 94 229 2.0 7.0 0.00 0.00 0.00 50 1015.1
20260901160236 94 251 2.0 7.0 0.00 0.00 0.00 51 1015.0
20260901155735 93 198 2.0 9.0 0.00 0.00 0.00 52 1015.1
20260901155230 94 197 8.0 11.0 0.00 0.00 0.00 50 1015.4
20260901154725 93 230 5.0 7.0 0.00 0.00 0.00 51 1015.1
20260901154221 92 283 4.0 8.0 0.00 0.00 0.00 53 1015.0
20260901153716 92 272 1.0 8.0 0.00 0.00 0.00 54 1015.1
20260901153215 93 198 5.0 9.0 0.00 0.00 0.00 53 1015.1
20260901152709 93 198 5.0 9.0 0.00 0.00 0.00 53 1015.1
20260901152208 91 200 3.0 8.0 0.00 0.00 0.00 55 1015.1
20260901151704 92 241 3.0 7.0 0.00 0.00 0.00 55 1015.0
20260901151158 91 248 3.0 8.0 0.00 0.00 0.00 55 1014.8
20260901150658 91 258 4.0 8.0 0.00 0.00 0.00 57 1015.1
20260901150156 91 255 5.0 7.0 0.00 0.00 0.00 56 1015.3
20260901145653 91 240 2.0 9.0 0.00 0.00 0.00 57 1015.2
20260901145148 91 221 4.0 6.0 0.00 0.00 0.00 57 1015.1
20260901144644 90 189 2.0 5.0 0.00 0.00 0.00 60 1015.1
20260901144138 89 233 2.0 7.0 0.00 0.00 0.00 62 1015.3
20260901143633 89 222 3.0 6.0 0.00 0.00 0.00 61 1015.4
20260901143130 88 233 5.0 7.0 0.00 0.00 0.00 62 1015.3
20260901142626 89 191 4.0 6.0 0.00 0.00 0.00 63 1015.3
20260901142125 88 180 4.0 6.0 0.00 0.00 0.00 63 1015.3
20260901141619 88 186 5.0 8.0 0.00 0.00 0.00 64 1015.4
20260901141114 87 226 2.0 5.0 0.00 0.00 0.00 65 1015.4
20260901140613 87 217 2.0 5.0 0.00 0.00 0.00 67 1015.3
20260901140113 87 160 4.0 6.0 0.00 0.00 0.00 66 1015.4
20260901135612 87 269 0.0 4.0 0.00 0.00 0.00 67 1015.3
20260901135108 86 237 1.0 8.0 0.00 0.00 0.00 69 1015.4
20260901134604 86 153 2.0 5.0 0.00 0.00 0.00 69 1015.3
20260901134058 85 222 2.0 5.0 0.00 0.00 0.00 71 1015.4
20260901133557 85 178 3.0 5.0 0.00 0.00 0.00 70 1015.4
20260901133056 85 188 2.0 5.0 0.00 0.00 0.00 71 1015.2
20260901132550 85 253 1.0 6.0 0.00 0.00 0.00 71 1015.4
20260901132044 84 199 0.0 4.0 0.00 0.00 0.00 72 1015.2
20260901131538 83 151 4.0 5.0 0.00 0.00 0.00 73 1015.3
20260901131034 83 170 2.0 5.0 0.00 0.00 0.00 73 1015.2
20260901130533 82 176 5.0 5.0 0.00 0.00 0.00 74 1015.0
20260901130032 82 159 2.0 4.0 0.00 0.00 0.00 75 1014.8